Location: College Rock
(37.2713°N, 119.1740°W)
Time: 13:44:58
(UTC+00:00)

Cosmos 1300 - Pass Details

Date: 29 October 2020
Orbit: 511 x 514 km, 82.5° (Epoch: 01 December)

Event Time Altitude Azimuth Distance (km) Brightness Sun altitude
Exits shadow 12:45:40 - 350° (N) 2,098 5.6 -19.1°
Reaches altitude 10° 12:46:32 10° 349° (N) 1,743 5.2 -18.9°
Maximum altitude 12:50:20 73° 264° (W) 539 2.5 -18.1°
Drops below altitude 10° 12:54:06 10° 180° (S) 1,727 5.4 -17.4°
Sets 12:56:13 0° 178° (S) 2,607 6.4 -17.0°
